Regional Weather Roundup
Issued by NWS

Home | Current Version | Previous Version | Text Only | Print | Product List | Glossary On
Versions: 1 2 3 4 5 6 7 8 9 10 11 12 13 14 15 16 17 18 19 20 21 22 23 24 25 26 27 28 29 30 31 32 33 34 35 36 37 38 39 40 41 42 43 44 45 46 47 48 49 50
000
ASUS44 KFWD 231415
RWRTX
NORTH TEXAS HOURLY WEATHER ROUNDUP
NATIONAL WEATHER SERVICE FORT WORTH TX
900 AM CDT FRI JUN 23 2017

NOTE: "FAIR" INDICATES FEW OR NO CLOUDS BELOW 12,000 FEET WITH NO
SIGNIFICANT WEATHER AND/OR OBSTRUCTIONS TO VISIBILITY.

TXZ118-119-231500-
DALLAS/FORT WORTH METROPLEX

CITY           SKY/WX    TMP DP  RH WIND       PRES   REMARKS
DFW AIRPORT    PTSUNNY   83  76  79 S12       29.77R HX  91
DALLAS LOVE    PTSUNNY   82  74  76 S10       29.78R
FTW MEACHAM    SUNNY     83  77  82 S12       29.78R HX  92
DAL-EXECUTIVE  MOSUNNY   81  76  84 S7        29.78S
FTW-ALLIANCE   MOSUNNY   82  76  81 S9        29.78R
FTW-NAS-JRB    MOSUNNY   82  75  79 S12       29.78R
FTW-SPINKS     MOSUNNY   81  75  83 S8        29.81R
ARLINGTON      MOSUNNY   80  76  87 S9        29.79R
GRAND PRAIRIE  MOSUNNY   79  73  83 S12       29.79S
ADDISON        MOSUNNY   81  73  78 S9        29.79R
MESQUITE       CLOUDY    79  75  89 S8        29.80R FOG
LANCASTER      PTSUNNY   79  75  87 S12       29.80S
$$

TXZ091>094-102>105-117-120-121-131>134-231500-
NORTH CENTRAL TEXAS

CITY           SKY/WX    TMP DP  RH WIND       PRES   REMARKS
SHRMAN/DENISON SUNNY     82  74  78 SW9       29.82R
GAINESVILLE    SUNNY     79  74  84 S5        29.83R
BOWIE          SUNNY     80  77  91 S9        29.80S
BRIDGEPORT     SUNNY     80  73  79 CALM      29.82R
DECATUR        SUNNY     80  74  81 S5        29.81R
DENTON         SUNNY     80  76  87 S6        29.79R
MCKINNEY       PTSUNNY   81  77  88 S9        29.80R
BONHAM         SUNNY     81  75  83 SW8       29.80R
GREENVILLE     CLOUDY    82  77  83 S9        29.81R HX  91
ROCKWALL       CLOUDY    78  76  95 S12G17    29.80R
TERRELL        CLOUDY    79  75  87 S8G18     29.79S
WAXAHACHIE     PTSUNNY   79  77  95 S8        29.81R
CLEBURNE       MOSUNNY   79  79 100 S9        29.82R
GRANBURY       SUNNY     82  74  78 E3        29.81R
$$

TXZ083>090-098>101-113>116-127>130-139>142-154-155-231500-
WESTERN NORTH TEXAS

CITY           SKY/WX    TMP DP  RH WIND       PRES   REMARKS
WICHITA FALLS  MOSUNNY   80  71  74 S8        29.76F
WF-KICKAPOO    SUNNY     80  72  76 S3        29.80S
VERNON         CLOUDY    80  67  65 NE3       29.80R
ABILENE        SUNNY     81  62  52 SW5       29.83R
ABILENE-DYESS  SUNNY     84  62  47 SE5       29.81R
GRAHAM         SUNNY     82  72  72 SE3       29.79R
BRECKENRIDGE   SUNNY     83  67  59 SW5       29.81R
CISCO          SUNNY     79  68  69 SW7       29.82R
EASTLAND       SUNNY     79  70  73 CALM      29.82R
MINERAL WELLS  SUNNY     79  73  82 S7        29.78R
STEPHENVILLE   SUNNY     77  73  86 CALM      29.84R
COMANCHE       SUNNY     77  74  89 CALM      29.82R
BROWNWOOD      LGT RAIN  81  68  65 S3        29.81R
COLEMAN        SUNNY     81  62  53 S3        29.83R
$$

TXZ143>147-156>162-174-175-231500-
CENTRAL TEXAS

CITY           SKY/WX    TMP DP  RH WIND       PRES   REMARKS
WACO           SUNNY     82  75  79 S15       29.79R
WACO-MCGREGOR  SUNNY     83  75  77 S9        29.80  HX  90
HILLSBORO      SUNNY     82  75  81 S10       29.80R
CORSICANA      MOSUNNY   83  77  82 S8        29.81R HX  92
MEXIA          MOSUNNY   82  74  78 S14G24    29.80R
HEARNE         CLOUDY    81  81  98 S8        29.82R HX  93
CAMERON        CLOUDY    83  76  79 S14       29.80R HX  92
TEMPLE         MOSUNNY   82  75  79 S16       29.81R
KILLEEN        HAZE      84  72  65 S15       29.80R VSB 1/4
KILLEEN-SKYLRK SUNNY     83  74  74 S9        29.81R
FORT HOOD      SUNNY    N/A N/A N/A S13       29.78R
HAMILTON       SUNNY     80  75  84 S8        29.81R
LAMPASAS       SUNNY     82  73  75 S9        29.80R
$$

TXZ095>097-106>112-122>126-135>138-148>153-164>167-231500-
EAST TEXAS

CITY           SKY/WX    TMP DP  RH WIND       PRES   REMARKS
PARIS            N/A     80  77  90 SW7       29.81R
SULPHUR SPRNGS   N/A     80  76  87 SW12G18   29.82R
MOUNT PLEASANT CLOUDY    81  78  90 S8        29.81S
GILMER         CLOUDY    80  75  86 S7        29.82R
MINEOLA        PTSUNNY   81  75  83 S8        29.80S
TYLER          PTSUNNY   83  76  79 S10       29.82R HX  91
LONGVIEW       CLOUDY    81  78  91 SW10      29.82R
MARSHALL       PTSUNNY   77  73  87 SW9       29.85R
ATHENS         CLOUDY    81  77  89 S7G16     29.80R
PALESTINE      CLOUDY    79  77  92 S7        29.83R
JACKSONVILLE   CLOUDY    79  76  92 S9G16     29.86R
HENDERSON      CLOUDY    80  76  89 S7        29.85R
CENTER         CLOUDY    85  80  86 S13G20    29.84S HX  98
NACOGDOCHES    CLOUDY    81  75  83 MISG      29.82S
LUFKIN         CLOUDY    80  77  90 S7        29.83R
$$

SUPPLEMENTAL OBSERVATIONS (NWS FORT WORTH AREA)

CITY           SKY/WX    TMP DP  RH WIND       PRES   REMARKS
DENISON DAM      N/A     81  72  74 W1          N/A
CADDO GRASSLND   N/A     81  75  83 SW7         N/A
PAT MAYSE LAKE   N/A     81  79  94 S10         N/A
GREENVILLE       N/A     81  75  83 S8          N/A
CEDAR HILL       N/A     82  75  78 S7G15       N/A
LBJ GRASSLAND    N/A     81  73  78 S5          N/A
POSSUM KINGDOM   N/A     82  72  69 S5          N/A
GRANBURY         N/A     81  73  78 SE6         N/A
COMANCHE         N/A     81  72  74 E3          N/A
MCGREGOR         N/A     82  73  74 S14G22      N/A
TEMPLE           N/A     82  73  74 S13         N/A
LAKE LIMESTONE   N/A     82  75  78 S16         N/A
$$

SUPPLEMENTAL OBSERVATIONS (NWS NORMAN AREA)

CITY           SKY/WX    TMP DP  RH WIND       PRES   REMARKS
GOODLETT         N/A     84  65  53 S9        29.79S
ODELL            N/A     80  71  73 E8        29.81R
CROWELL          N/A     81  70  69 SE7       29.80F
KNOX CITY        N/A     85  62  46 S6        29.81S
SEYMOUR          N/A     85  75  72 SE5       29.80S HX  92
MILLERS CREEK    N/A     82  72  69 NE3         N/A
$$

SUPPLEMENTAL OBSERVATIONS (NWS SAN ANGELO AREA)

CITY           SKY/WX    TMP DP  RH WIND       PRES   REMARKS
HASKELL          N/A     81  63  52 S7        29.80F
THROCKMORTON     N/A     82  71  68 SE7       29.81S
STAMFORD         N/A     82  64  53 S3        29.83R
CLYDE            N/A     83  64  51 S5        29.85S
HAMBY            N/A     86  59  39 S6          N/A
IVIE RESERVOIR   N/A     84  66  54 W2          N/A
COLORADO BEND    N/A     82  70  65 W9          N/A
$$

SUPPLEMENTAL OBSERVATIONS (NWS SHREVEPORT AREA)

CITY           SKY/WX    TMP DP  RH WIND       PRES   REMARKS
CLARKSVILLE      N/A     81  75  83 SW2         N/A
TEXARKANA        N/A     82  77  83 SW6         N/A  HX  91
LINDEN           N/A     82  75  78 SW5         N/A
CADDO LAKE       N/A     81  75  83 W2          N/A
GILMER           N/A     82  75  78 S5          N/A
HENDERSON        N/A     81  77  89 S8          N/A
LUFKIN           N/A     81  75  83 MISG        N/A
N SABINE NF      N/A     81  77  89 MISG        N/A
S SABINE NF      N/A     82  77  83 SE3         N/A  HX  91
$$

SUPPLEMENTAL OBSERVATIONS ARE A COLLECTION OF AUTOMATED INSTRUMENTS
THAT ARE MAINTAINED BY A VARIETY OF FEDERAL AND STATE AGENCIES.
CERTAIN ELEMENTS...SUCH AS HUMIDITY VALUES AND SUSTAINED WIND
SPEEDS...MAY BE APPROXIMATED.





USA.gov is the U.S. government's official web portal to all federal, state and local government web resources and services.